Estherville, IA

2:58 PM CDT on March 25, 2017 (GMT -0500)
Estherville Municipal

Weather History for KEST - July, 2013

Change the Weather History Date:

Friday, July 5, 2013

  Actual Average Record
Temperature  
Mean Temperature 78 °F 72 °F  
Max Temperature 89 °F 83 °F 97 °F (1948)
Min Temperature 67 °F 61 °F 44 °F (1972)
Degree Days  
Heating Degree Days 0 0  
Month to date heating degree days 0 0  
Since 1 June heating degree days 54 41  
Since 1 July heating degree days 0 0  
Cooling Degree Days 13 7  
Month to date cooling degree days 35 35  
Year to date cooling degree days 218 208  
Since 1 June cooling degree days 185 172  
Growing Degree Days 28 (Base 50)    
Moisture  
Dew Point 58 °F    
Average Humidity 51    
Maximum Humidity 68    
Minimum Humidity 34    
Precipitation  
Precipitation T in 0.12 in 1.68 in (2004)
Month to date precipitation T 0.64  
Sea Level Pressure  
Sea Level Pressure 29.86 in    
Wind  
Wind Speed 14 mph (South)    
Max Wind Speed 23 mph    
Max Gust Speed 30 mph    
Visibility 10 miles    
Events      
T = Trace of Precipitation, MM = Missing Value Source: NWS Daily Summary

Daily Weather History Graph

Daily Weather History Graph

Search for Another Location

Airport or City:

Trip Planner

Search our weather history database for the weather conditions in past years. The results will help you decide how hot, cold, wet, or windy it might be!

Date:

Astronomy

Jul. 05, 2013 Rise Set
Actual Time 5:44 AM CDT 9:02 PM CDT
Civil Twilight 5:09 AM CDT 9:37 PM CDT
Nautical Twilight 4:23 AM CDT 10:23 PM CDT
Astronomical Twilight 3:27 AM CDT 11:19 PM CDT
Moon 3:46 AM CDT (7/5) 6:56 PM CDT (7/5)
Length of Visible Light 16h 28m
Length of Day
15h 17m
Waning Crescent, 6% of the Moon is Illuminated
Jul 5
Waning Crescent
Jul 8
New
Jul 15
First Quarter
Jul 22
Full
Jul 29
Last Quarter

Hourly Weather History & Observations

Time (CDT) Temp. Heat Index Dew Point Humidity Pressure Visibility Wind Dir Wind Speed Gust Speed Precip Events Conditions
12:52 AM 70.0 °F - 55.0 °F 59% 29.90 in 10.0 mi South 11.5 mph - N/A   Scattered Clouds
1:52 AM 69.1 °F - 55.9 °F 63% 29.89 in 10.0 mi South 10.4 mph - N/A   Clear
2:52 AM 66.9 °F - 55.9 °F 68% 29.90 in 10.0 mi South 10.4 mph - N/A   Scattered Clouds
3:52 AM 68.0 °F - 55.9 °F 65% 29.89 in 10.0 mi South 12.7 mph - N/A   Partly Cloudy
4:52 AM 68.0 °F - 55.9 °F 65% 29.89 in 10.0 mi South 12.7 mph - N/A   Clear
5:52 AM 66.9 °F - 55.9 °F 68% 29.88 in 10.0 mi South 12.7 mph - N/A   Clear
6:52 AM 68.0 °F - 57.0 °F 68% 29.88 in 10.0 mi South 13.8 mph - N/A   Partly Cloudy
7:52 AM 70.0 °F - 57.0 °F 63% 29.88 in 10.0 mi South 13.8 mph 23.0 mph N/A   Clear
8:52 AM 75.0 °F - 57.0 °F 53% 29.88 in 9.0 mi South 19.6 mph 27.6 mph N/A   Clear
9:52 AM 77.0 °F - 57.9 °F 52% 29.88 in 9.0 mi South 19.6 mph 28.8 mph N/A   Partly Cloudy
10:52 AM 73.0 °F - 62.1 °F 68% 29.88 in 9.0 mi South 9.2 mph - 0.00 in   Mostly Cloudy
11:52 AM 77.0 °F - 61.0 °F 58% 29.87 in 8.0 mi South 11.5 mph - N/A   Mostly Cloudy
12:52 PM 84.0 °F 84.9 °F 63.0 °F 49% 29.86 in 9.0 mi South 15.0 mph 20.7 mph N/A   Partly Cloudy
1:52 PM 84.9 °F 84.8 °F 60.1 °F 43% 29.85 in 10.0 mi SSW 16.1 mph 23.0 mph N/A   Scattered Clouds
2:52 PM 89.1 °F 89.3 °F 62.1 °F 40% 29.84 in 10.0 mi South 17.3 mph 25.3 mph N/A   Partly Cloudy
3:52 PM 88.0 °F 87.1 °F 59.0 °F 37% 29.83 in 10.0 mi South 15.0 mph 25.3 mph N/A   Clear
4:52 PM 88.0 °F 87.1 °F 59.0 °F 37% 29.83 in 10.0 mi South 21.9 mph 26.5 mph N/A   Clear
5:52 PM 88.0 °F 86.5 °F 55.9 °F 34% 29.82 in 10.0 mi South 18.4 mph 27.6 mph N/A   Clear
6:52 PM 86.0 °F 85.0 °F 57.9 °F 38% 29.82 in 10.0 mi SSW 19.6 mph 26.5 mph N/A   Clear
7:52 PM 82.9 °F 82.8 °F 59.0 °F 44% 29.83 in 10.0 mi SSW 12.7 mph - N/A   Clear
8:52 PM 79.0 °F - 59.0 °F 50% 29.83 in 10.0 mi South 12.7 mph - N/A   Clear
9:52 PM 77.0 °F - 60.1 °F 56% 29.84 in 10.0 mi South 9.2 mph - N/A   Clear
10:52 PM 75.0 °F - 61.0 °F 62% 29.86 in 10.0 mi South 13.8 mph - N/A   Clear
11:52 PM 75.0 °F - 59.0 °F 57% 29.86 in 10.0 mi South 11.5 mph - N/A   Clear